AirNav   Air Wisconsin pilot careers
 
 442 users online  

5M1 De Witt Municipal Airport Whitcomb Field
De Witt, Arkansas, USA

GOING TO DE WITT?


FAA INFORMATION EFFECTIVE 06 DECEMBER 2018

Location

FAA Identifier: 5M1
Lat/Long: 34-15-44.2000N / 091-18-27.0000W
34-15.736667N / 091-18.450000W
34.2622778 / -91.3075000
(estimated)
Elevation: 188.8 ft. / 57.5 m (surveyed)
Variation: 03E (1985)
From city: 3 miles SE of DE WITT, AR
Time zone: UTC -6 (UTC -5 during Daylight Saving Time)
Zip code: 72042

Airport Operations

Airport use: Open to the public
Activation date: 06/1970
Control tower: no
ARTCC: MEMPHIS CENTER
FSS: JONESBORO FLIGHT SERVICE STATION
NOTAMs facility: JBR (NOTAM-D service available)
Attendance: MON-FRI 0700-1700, ALL SAT 0700-1200
FOR SVC AFT HRS CALL 870-946-3838.
Wind indicator: lighted
Segmented circle: yes
Lights: ACTVT MIRL RY 18/36; PAPI RYS 18 & 36 - CTAF.
Beacon: white-green (lighted land airport)
Operates sunset to sunrise.

Airport Communications

CTAF: 122.9

Nearby radio navigation aids

VOR radial/distance  VOR name  Freq  Var
PBFr084/30.7PINE BLUFF VOR/DME116.0004E
UJMr238/36.5MARVELL VOR/DME109.6001E

Airport Services

Fuel available: 100LL
FUEL AVBL 24 HR SELF SERVE WITH CREDIT CARD.
Parking: tiedowns
Airframe service: MAJOR
Powerplant service: MAJOR
Bottled oxygen: NONE
Bulk oxygen: NONE

Runway Information

Runway 18/36

Dimensions: 3205 x 60 ft. / 977 x 18 m
Surface: asphalt, in good condition
Weight bearing capacity: 
Single wheel: 12.0
Runway edge lights: medium intensity
RUNWAY 18  RUNWAY 36
Latitude: 34-16.000862N34-15.472687N
Longitude: 091-18.441250W091-18.457420W
Elevation: 188.7 ft.188.0 ft.
Gradient: 0.1%0.1%
Traffic pattern: leftleft
Runway heading: 178 magnetic, 181 true358 magnetic, 001 true
Markings: basic, in fair conditionbasic, in fair condition
Visual slope indicator: 2-light PAPI on left (3.00 degrees glide path)2-light PAPI on left (3.00 degrees glide path)
Runway end identifier lights: yesyes
Touchdown point: yes, no lightsyes, no lights
Obstructions: 15 ft. road, 450 ft. from runway, 16:1 slope to clearnone

Airport Ownership and Management from official FAA records

Ownership: Publicly-owned
Owner: CITY OF DE WITT
120 COURT SQUARE
DE WITT, AR 72042
Phone 870-946-2191
Manager: BARRY JOE WILSON
P.O. DRAWER 272
DEWITT, AR 72042
Phone 870-946-3838

Airport Operational Statistics

Aircraft based on the field: 18
Single engine airplanes: 18
    
Aircraft operations: avg 140/day *
98% local general aviation
2% transient general aviation
<1% military
* for 12-month period ending 31 August 2016

Instrument Procedures

There are no published instrument procedures at 5M1.

Some nearby airports with instrument procedures:

M73 - Almyra Municipal Airport (12 nm NW)
KSGT - Stuttgart Municipal Airport / Carl Humphrey Field (24 nm NW)
0M0 - Billy Free Municipal Airport (25 nm SW)
KPBF - Pine Bluff Regional Airport Grider Field (32 nm W)
KHEE - Thompson-Robbins Airport (37 nm NE)
 
Loc | Ops | Rwys | IFR | FBO | Links
Com | Nav | Svcs | Stats | Notes


 
Area around 5M1 (De Witt Municipal Airport Whitcomb Field)
 
Road maps at: MapQuest Bing Google
 
Aerial photo
WARNING: Photo may not be current or correct
Aerial photo of 5M1 (De Witt Municipal Airport Whitcomb Field)
Photo courtesy of the Arkansas Department of Aeronautics
Taken in the Spring of 2007

Do you have a better or more recent aerial photo of De Witt Municipal Airport Whitcomb Field that you would like to share? If so, please send us your photo.

 
Sectional chart

 
Airport distance calculator
Flying to De Witt Municipal Airport Whitcomb Field? Find the distance to fly.

From to 5M1

Sunrise and sunset
Times for 15-Dec-2018
 Local
(UTC-6)
 Zulu
(UTC)
Morning civil twilight06:3712:37
Sunrise07:0513:05
Sunset16:5622:56
Evening civil twilight17:2423:24

Current date and time
Zulu (UTC)  15-Dec-2018 06:52:43
Local (UTC-6)  15-Dec-2018 00:52:43
 
METAR
KSGT 
24nm NW 
150556Z AUTO 33014KT 4SM BR OVC006 09/08 A2985 RMK AO2 SLP110 T00940083 10106 20094 401280094 58002
KPBF 
31nm W 
150553Z AUTO 34008KT 10SM OVC011 09/07 A2987 RMK AO2 RAE34 SLP112 P0000 60001 T00940072 10106 20094 401390094 53001
KCKM 
39nm E 
150635Z AUTO 06005KT 10SM FEW005 OVC013 10/10 A2980 RMK A01
KRNV 
41nm SE 
150635Z AUTO 24007KT 10SM BKN004 BKN007 OVC012 09/09 A2981 RMK AO2 T00850085
KLLQ 
44nm SW 
150606Z AUTO 35004KT 9SM OVC010 11/09 A2985 RMK AO2 RAE02 CIG 006V014 P0000 T01060089
TAF
KPBF 
31nm W 
150529Z 1506/1606 35010G15KT 6SM -SHRA BR OVC015 TEMPO 1508/1512 2SM BR OVC009 FM151200 32010KT P6SM OVC012 FM151500 32009KT 4SM BR SCT012 OVC025 FM160000 32004KT P6SM OVC030
NOTAMs
Click for the latest NOTAMs
NOTAMs are issued by the DoD/FAA and will open in a separate window not controlled by AirNav.

 

 
 

FBO, Fuel Providers, and Aircraft Ground Support

  
 Business Name 
 
 Contact 
 
 Services / Description 
 
Fuel Prices
 
Comments
  
DeWitt Municipal Airport 870-946-3838
no information available

If you are affiliated with DeWitt Municipal Airport and would like to show here your services, contact info, web link, logo, and more, click here
100LL
SS $4.35 
 Updated 19-Nov-2018
 
   write
SS=Self service
Update Fuel Prices
 

Would you like to see your business listed on this page?

 If your business provides an interesting product or service to pilots, flight crews, aircraft, or users of the De Witt Municipal Airport Whitcomb Field, you should consider listing it here.  To start the listing process, click on the button below
 
Add a business
 

Other Pages about De Witt Municipal Airport Whitcomb Field

Update a link
 
Copyright © AirNav, LLC. All rights reserved. Privacy Policy  Contact